Time,TemperatureF,DewpointF,PressureIn,WindDirection,WindDirectionDegrees,WindSpeedMPH,WindSpeedGustMPH,Humidity,HourlyPrecipIn,Conditions,Clouds,dailyrainin,SoftwareType,DateUTC
2013-12-03 00:12:00,60.0,52.0,29.61,SSE,165,0.0,2.0,75,0.00,,,0.00,,2013-12-03 06:12:00,
2013-12-03 00:22:00,60.0,52.0,29.61,SSE,150,0.0,2.0,75,0.00,,,0.00,,2013-12-03 06:22:00,
2013-12-03 00:42:00,60.0,52.0,29.60,SW,225,0.0,3.0,74,0.00,,,0.00,,2013-12-03 06:42:00,
2013-12-03 00:52:00,60.0,50.0,29.60,SSW,207,0.0,1.0,70,0.00,,,0.00,,2013-12-03 06:52:00,
2013-12-03 01:22:00,60.0,50.0,29.60,SE,141,1.0,3.0,69,0.00,,,0.00,,2013-12-03 07:22:00,
2013-12-03 01:42:00,61.0,50.0,29.60,SE,134,1.0,3.0,68,0.00,,,0.00,,2013-12-03 07:42:00,
2013-12-03 01:52:00,61.0,50.0,29.59,East,91,1.0,4.0,67,0.00,,,0.00,,2013-12-03 07:52:00,
2013-12-03 02:22:00,62.0,51.0,29.58,NNE,22,0.0,3.0,66,0.00,,,0.00,,2013-12-03 08:22:00,
2013-12-03 02:42:00,62.0,50.0,29.58,SE,131,1.0,4.0,64,0.00,,,0.00,,2013-12-03 08:42:00,
2013-12-03 02:53:00,62.0,49.0,29.57,South,188,1.0,4.0,63,0.00,,,0.00,,2013-12-03 08:53:00,
2013-12-03 03:11:00,62.0,49.0,29.57,ESE,105,1.0,4.0,63,0.00,,,0.00,,2013-12-03 09:11:00,
2013-12-03 03:21:00,62.0,50.0,29.57,ESE,105,0.0,4.0,65,0.00,,,0.00,,2013-12-03 09:21:00,
2013-12-03 03:43:00,62.0,51.0,29.57,SSE,149,1.0,4.0,66,0.00,,,0.00,,2013-12-03 09:43:00,
2013-12-03 03:53:00,62.0,51.0,29.57,SSE,149,1.0,4.0,66,0.00,,,0.00,,2013-12-03 09:53:00,
2013-12-03 04:13:00,62.0,52.0,29.57,SE,125,1.0,4.0,70,0.00,,,0.00,,2013-12-03 10:13:00,
2013-12-03 04:23:00,62.0,52.0,29.57,SE,142,0.0,2.0,71,0.00,,,0.00,,2013-12-03 10:23:00,
2013-12-03 04:42:00,61.0,52.0,29.57,SW,228,0.0,2.0,73,0.00,,,0.00,,2013-12-03 10:42:00,
2013-12-03 04:53:00,60.0,52.0,29.56,East,101,1.0,3.0,75,0.00,,,0.00,,2013-12-03 10:53:00,
2013-12-03 05:22:00,62.0,54.0,29.55,NNE,16,1.0,4.0,74,0.00,,,0.00,,2013-12-03 11:22:00,
2013-12-03 05:42:00,62.0,52.0,29.54,WNW,291,2.0,5.0,71,0.00,,,0.00,,2013-12-03 11:42:00,
2013-12-03 05:52:00,62.0,53.0,29.55,SSE,168,1.0,5.0,72,0.00,,,0.00,,2013-12-03 11:52:00,
2013-12-03 06:12:00,62.0,53.0,29.55,East,82,1.0,4.0,73,0.00,,,0.00,,2013-12-03 12:12:00,
2013-12-03 06:21:00,61.0,53.0,29.56,SSW,204,1.0,4.0,75,0.00,,,0.00,,2013-12-03 12:21:00,
2013-12-03 06:42:00,61.0,53.0,29.57,SSW,198,1.0,6.0,76,0.00,,,0.00,,2013-12-03 12:42:00,
2013-12-03 06:52:00,61.0,53.0,29.57,SSW,198,1.0,4.0,74,0.00,,,0.00,,2013-12-03 12:52:00,
2013-12-03 07:22:00,60.0,51.0,29.57,SE,145,0.0,2.0,71,0.00,,,0.00,,2013-12-03 13:22:00,
2013-12-03 07:42:00,59.0,49.0,29.58,SSE,153,0.0,2.0,70,0.00,,,0.00,,2013-12-03 13:42:00,
2013-12-03 07:52:00,58.0,47.0,29.58,East,96,0.0,2.0,67,0.00,,,0.00,,2013-12-03 13:52:00,
2013-12-03 08:22:00,60.0,47.0,29.59,ESE,103,0.0,2.0,62,0.00,,,0.00,,2013-12-03 14:22:00,
2013-12-03 08:42:00,61.0,47.0,29.59,SE,131,0.0,5.0,59,0.00,,,0.00,,2013-12-03 14:42:00,
2013-12-03 10:23:00,71.0,45.0,29.62,NNE,24,2.0,4.0,40,0.00,,,0.00,,2013-12-03 16:23:00,
2013-12-03 10:52:00,73.0,44.0,29.62,East,88,1.0,5.0,35,0.00,,,0.00,,2013-12-03 16:52:00,
2013-12-03 11:22:00,76.0,41.0,29.61,SSW,195,1.0,6.0,29,0.00,,,0.00,,2013-12-03 17:22:00,
2013-12-03 11:42:00,77.0,42.0,29.61,WNW,300,1.0,7.0,29,0.00,,,0.00,,2013-12-03 17:42:00,
2013-12-03 11:52:00,78.0,42.0,29.60,NNW,333,0.0,3.0,28,0.00,,,0.00,,2013-12-03 17:52:00,
2013-12-03 12:12:00,79.0,43.0,29.59,NW,308,2.0,4.0,28,0.00,,,0.00,,2013-12-03 18:12:00,
2013-12-03 12:22:00,79.0,42.0,29.59,WSW,252,1.0,2.0,27,0.00,,,0.00,,2013-12-03 18:22:00,
2013-12-03 12:42:00,80.0,43.0,29.57,ENE,70,1.0,4.0,27,0.00,,,0.00,,2013-12-03 18:42:00,
2013-12-03 12:53:00,81.0,45.0,29.57,SSW,203,1.0,4.0,28,0.00,,,0.00,,2013-12-03 18:53:00,
2013-12-03 13:22:00,82.0,43.0,29.55,SSE,154,1.0,4.0,25,0.00,,,0.00,,2013-12-03 19:22:00,
2013-12-03 13:52:00,84.0,46.0,29.53,SE,134,0.0,4.0,27,0.00,,,0.00,,2013-12-03 19:52:00,
2013-12-03 14:22:00,83.0,42.0,29.52,SSE,150,0.0,3.0,24,0.00,,,0.00,,2013-12-03 20:22:00,
2013-12-03 14:42:00,84.0,43.0,29.52,SSE,151,0.0,2.0,24,0.00,,,0.00,,2013-12-03 20:42:00,
2013-12-03 14:53:00,84.0,42.0,29.51,SE,144,0.0,2.0,23,0.00,,,0.00,,2013-12-03 20:53:00,
2013-12-03 15:11:00,85.0,44.0,29.51,SW,228,1.0,3.0,24,0.00,,,0.00,,2013-12-03 21:11:00,
2013-12-03 15:22:00,84.0,47.0,29.50,SW,235,2.0,5.0,28,0.00,,,0.00,,2013-12-03 21:22:00,
2013-12-03 15:44:00,83.0,47.0,29.50,WSW,238,2.0,5.0,28,0.00,,,0.00,,2013-12-03 21:44:00,
2013-12-03 15:53:00,82.0,47.0,29.50,West,266,1.0,4.0,29,0.00,,,0.00,,2013-12-03 21:53:00,
2013-12-03 16:23:00,81.0,46.0,29.49,SW,217,0.0,4.0,29,0.00,,,0.00,,2013-12-03 22:23:00,
2013-12-03 16:53:00,78.0,45.0,29.50,SW,217,1.0,4.0,31,0.00,,,0.00,,2013-12-03 22:53:00,
2013-12-03 17:12:00,77.0,46.0,29.50,SSW,206,1.0,6.0,33,0.00,,,0.00,,2013-12-03 23:12:00,
2013-12-03 17:22:00,76.0,46.0,29.50,SW,232,1.0,4.0,35,0.00,,,0.00,,2013-12-03 23:22:00,
2013-12-03 17:42:00,74.0,45.0,29.51,WSW,242,2.0,5.0,36,0.00,,,0.00,,2013-12-03 23:42:00,
2013-12-03 17:52:00,73.0,47.0,29.51,WSW,243,2.0,5.0,40,0.00,,,0.00,,2013-12-03 23:52:00,
2013-12-03 18:11:00,72.0,48.0,29.51,SW,219,2.0,5.0,43,0.00,,,0.00,,2013-12-04 00:11:00,
2013-12-03 18:22:00,70.0,48.0,29.52,WSW,243,1.0,5.0,46,0.00,,,0.00,,2013-12-04 00:22:00,
2013-12-03 18:42:00,70.0,48.0,29.52,SSW,197,2.0,6.0,45,0.00,,,0.00,,2013-12-04 00:42:00,
2013-12-03 18:52:00,70.0,46.0,29.52,South,172,1.0,6.0,43,0.00,,,0.00,,2013-12-04 00:52:00,
2013-12-03 19:11:00,69.0,46.0,29.52,West,276,1.0,6.0,44,0.00,,,0.00,,2013-12-04 01:11:00,
2013-12-03 19:21:00,69.0,46.0,29.53,NNE,33,1.0,5.0,44,0.00,,,0.00,,2013-12-04 01:21:00,
2013-12-03 19:42:00,68.0,46.0,29.54,WSW,255,0.0,4.0,45,0.00,,,0.00,,2013-12-04 01:42:00,
2013-12-03 19:52:00,68.0,46.0,29.54,SSW,207,1.0,5.0,45,0.00,,,0.00,,2013-12-04 01:52:00,
2013-12-03 20:11:00,68.0,46.0,29.55,SSW,212,0.0,5.0,46,0.00,,,0.00,,2013-12-04 02:11:00,
2013-12-03 20:22:00,67.0,46.0,29.56,SSW,212,0.0,4.0,46,0.00,,,0.00,,2013-12-04 02:22:00,
2013-12-03 20:42:00,67.0,46.0,29.56,SW,215,1.0,6.0,46,0.00,,,0.00,,2013-12-04 02:42:00,
2013-12-03 20:52:00,67.0,46.0,29.56,SW,215,1.0,6.0,46,0.00,,,0.00,,2013-12-04 02:52:00,
2013-12-03 21:12:00,67.0,47.0,29.57,SW,232,1.0,4.0,48,0.00,,,0.00,,2013-12-04 03:12:00,
2013-12-03 21:21:00,67.0,47.0,29.57,South,188,1.0,6.0,48,0.00,,,0.00,,2013-12-04 03:21:00,
2013-12-03 21:43:00,67.0,47.0,29.57,SSW,212,1.0,5.0,48,0.00,,,0.00,,2013-12-04 03:43:00,
2013-12-03 21:54:00,67.0,47.0,29.58,SSW,212,1.0,8.0,49,0.00,,,0.00,,2013-12-04 03:54:00,
2013-12-03 22:13:00,66.0,47.0,29.57,SW,235,1.0,6.0,50,0.00,,,0.00,,2013-12-04 04:13:00,
2013-12-03 22:23:00,66.0,47.0,29.57,SW,226,1.0,5.0,51,0.00,,,0.00,,2013-12-04 04:23:00,
2013-12-03 22:52:00,66.0,47.0,29.57,West,260,1.0,4.0,50,0.00,,,0.00,,2013-12-04 04:52:00,
2013-12-03 23:12:00,66.0,46.0,29.57,SW,224,2.0,7.0,49,0.00,,,0.00,,2013-12-04 05:12:00,
2013-12-03 23:22:00,66.0,46.0,29.57,West,260,2.0,7.0,49,0.00,,,0.00,,2013-12-04 05:22:00,
2013-12-03 23:42:00,66.0,46.0,29.58,SW,229,2.0,6.0,48,0.00,,,0.00,,2013-12-04 05:42:00,
2013-12-03 23:53:00,66.0,46.0,29.58,SW,229,1.0,6.0,49,0.00,,,0.00,,2013-12-04 05:53:00,